Weather History for George, South Africa

Change the Weather History Date:

Thursday, February 28, 2013

  Actual Average Record
Temperature  
Mean Temperature 62 °F -  
Max Temperature 65 °F 73 °F 89 °F (2002)
Min Temperature 59 °F 57 °F 51 °F (1997)
Degree Days  
Heating Degree Days 3    
Growing Degree Days 12 (Base 50)    
Moisture  
Dew Point 57 °F    
Average Humidity 81    
Maximum Humidity 94    
Minimum Humidity 58    
Precipitation  
Precipitation 0.24 in - - ()
Sea Level Pressure  
Sea Level Pressure 30.03 in    
Wind  
Wind Speed 6 mph ()    
Max Wind Speed 22 mph    
Max Gust Speed -    
Visibility 5.7 miles    
Events Rain    
Averages and records for this station are not official NWS values.
T = Trace of Precipitation, MM = Missing Value Source: Averaged Metar Reports

Daily Weather History Graph

Daily Weather History Graph

Search for Another Location

Airport:

Trip Planner

Search our weather history database for the weather conditions in past years. The results will help you decide how hot, cold, wet, or windy it might be!

Date:

Astronomy

Feb. 28, 2013 Rise Set
Actual Time 6:17 AM SAST 7:07 PM SAST
Civil Twilight 5:51 AM SAST 7:33 PM SAST
Nautical Twilight 5:21 AM SAST 8:03 PM SAST
Astronomical Twilight 4:50 AM SAST 8:34 PM SAST
Moon 8:28 PM SAST (2/28) 8:47 AM SAST (2/28)
Length of Visible Light 13h 41m
Length of Day
12h 50m
Waning Gibbous, 93% of the Moon is Illuminated
Feb 28
Waning Gibbous
Mar 4
Last Quarter
Mar 11
New
Mar 19
First Quarter
Mar 27
Full

Hourly Weather History & Observations

Time (SAST) Temp. Dew Point Humidity Pressure Visibility Wind Dir Wind Speed Gust Speed Precip Events Conditions
12:00 AM 68.0 °F 60.8 °F 78% 29.86 in 6.2 mi North 3.5 mph - N/A   Mostly Cloudy
1:00 AM 68.0 °F 60.8 °F 78% 29.83 in 6.2 mi NNW 3.5 mph - N/A   Mostly Cloudy
2:00 AM 67 °F 60 °F 72% 29.83 in 12 mi North 3.5 mph - -  
2:00 AM 66.2 °F 60.8 °F 83% 29.83 in 6.2 mi Variable 2.3 mph - N/A   Partly Cloudy
3:00 AM 64.4 °F 59.0 °F 83% 29.83 in 6.2 mi Variable 2.3 mph - N/A   Scattered Clouds
4:00 AM 64.4 °F 60.8 °F 88% 29.86 in 6.2 mi Calm Calm - N/A   Mostly Cloudy
5:00 AM 63 °F 61 °F 89% 29.89 in 3 mi SSW 21.9 mph - - Rain Light Rain
5:00 AM 62.6 °F 60.8 °F 94% 29.89 in 2.8 mi SSW 19.6 mph - N/A Rain Light Rain
6:00 AM 62.6 °F 59.0 °F 88% 29.92 in 2.8 mi SW 16.1 mph - N/A Rain Light Rain
7:00 AM 60.8 °F 59.0 °F 94% 29.98 in 2.2 mi West 12.7 mph - N/A Rain Light Rain
8:00 AM 60 °F 58 °F 93% 30.02 in 2 mi WSW 10.4 mph - - Rain Light Rain
8:00 AM 60.8 °F 59.0 °F 94% 30.01 in 1.6 mi WSW 10.4 mph - N/A Rain Light Rain
9:00 AM 59.0 °F 57.2 °F 94% 30.04 in 1.6 mi SW 10.4 mph - N/A Rain Light Rain
10:00 AM 59.0 °F 57.2 °F 94% 30.06 in 2.8 mi West 10.4 mph - N/A Rain Light Rain
11:00 AM 61 °F 58 °F 85% 30.11 in 2 mi NW 6.9 mph - - Rain Light Rain
11:00 AM 60.8 °F 55.4 °F 82% 30.09 in 1.7 mi WNW 6.9 mph - N/A Rain Light Rain
1:00 PM 64.4 °F 51.8 °F 64% 30.12 in 6.2 mi SW 6.9 mph - N/A   Mostly Cloudy
2:00 PM 64 °F 54 °F 62% 30.14 in 12 mi WNW 5.8 mph - -   Mostly Cloudy
2:00 PM 64.4 °F 53.6 °F 68% 30.12 in 6.2 mi WNW 5.8 mph - N/A   Mostly Cloudy
3:00 PM 62.6 °F 55.4 °F 77% 30.12 in 6.2 mi WNW 8.1 mph - N/A   Mostly Cloudy
4:00 PM 64.4 °F 51.8 °F 64% 30.09 in 6.2 mi Variable 4.6 mph - N/A   Mostly Cloudy
5:00 PM 65 °F 54 °F 58% 30.12 in 12 mi South 4.6 mph - -   Mostly Cloudy
5:00 PM 64.4 °F 53.6 °F 68% 30.09 in 6.2 mi South 4.6 mph - N/A   Mostly Cloudy
6:00 PM 62.6 °F 55.4 °F 77% 30.12 in 6.2 mi NE 3.5 mph - N/A   Mostly Cloudy
7:00 PM 59.0 °F 55.4 °F 88% 30.12 in 6.2 mi NE 4.6 mph - N/A Rain Light Rain
8:00 PM 59 °F 56 °F 85% 30.14 in 12 mi North 8.1 mph - - Rain Light Rain
8:00 PM 59.0 °F 55.4 °F 88% 30.15 in 6.2 mi North 6.9 mph - N/A   Mostly Cloudy
9:00 PM 60.8 °F 55.4 °F 82% 30.18 in 6.2 mi WNW 5.8 mph - N/A   Overcast
10:00 PM 60.8 °F 55.4 °F 82% 30.18 in 6.2 mi NW 3.5 mph - N/A   Mostly Cloudy
11:00 PM 60.8 °F 53.6 °F 77% 30.18 in 6.2 mi NW 2.3 mph - N/A   Overcast